Location: Mercogliano
(40.9167°N, 14.7333°E)
Time: 19:39:22
(UTC+00:00)

Okean-O - Visible Passes

Search period start: 26 January 2021 00:00
Search period end: 05 February 2021 00:00
Orbit: 639 x 640 km, 98.2° (Epoch: 26 January)

Date Brightness Start Highest point End Pass type
(mag) Time Alt. Az. Time Alt. Az. Time Alt. Az.
26 Jan 3.0 17:14:08 10° SE 17:18:17 41° ENE 17:22:28 10° N visible
26 Jan 5.4 18:51:55 10° SW 18:54:55 18° W 18:57:57 10° NW visible
27 Jan 2.5 17:37:08 10° SSE 17:41:32 74° ENE 17:45:59 10° N visible
28 Jan 5.9 05:28:58 10° ENE 05:31:20 14° E 05:33:41 10° SE visible
28 Jan 3.1 18:00:30 10° S 18:04:52 61° WSW 18:09:16 10° NNW visible
29 Jan 3.8 16:48:34 10° ESE 16:52:00 22° ENE 16:55:26 10° NNE visible
29 Jan 4.3 18:24:15 10° SSW 18:28:16 34° W 18:32:18 10° NNW visible
30 Jan 3.1 17:11:04 10° SE 17:15:09 38° ENE 17:19:16 10° N visible
30 Jan 5.2 18:48:33 10° SW 18:51:44 19° W 18:54:57 10° NW visible
31 Jan 2.5 17:34:00 10° SSE 17:38:24 68° ENE 17:42:48 10° N visible
31 Jan 5.9 19:14:13 10° WSW 19:15:18 11° W 19:16:23 10° WNW visible
01 Feb 6.0 05:26:07 10° ENE 05:28:08 13° E 05:30:09 10° ESE visible
01 Feb 2.9 17:57:18 10° S 18:01:42 67° WSW 18:06:08 10° NNW visible
02 Feb 3.9 16:45:35 10° ESE 16:48:52 21° ENE 16:52:10 10° NNE visible
02 Feb 4.1 18:21:00 10° SSW 18:25:05 37° W 18:29:13 10° NNW visible
03 Feb 3.2 17:08:01 10° SE 17:12:01 35° ENE 17:16:03 10° N visible
03 Feb 5.1 18:45:11 10° SW 18:48:33 21° W 18:51:56 10° NW visible
04 Feb 2.6 17:30:53 10° SSE 17:35:15 62° ENE 17:39:38 10° N visible
04 Feb 5.9 19:10:25 10° WSW 19:12:06 12° W 19:13:47 10° WNW visible
